START_TIME,STEP,MOV.,A46,t_acc.,A13,t_acc.,M47,t_acc.,A17,t_acc.,A28,t_acc.,M38,t_acc.
1979-07-03 21:00:26.340 ,0,0,,0,6.,4.8,0.,4.8,,0,0.,4.8,0.,4.8
1979-07-03 21:00:31.140 ,0,0,,0,6.,4.8,0.,4.8,,0,0.,4.8,0.,4.8
1979-07-03 21:00:35.940 ,0,0,,0,5.,4.8,0.,4.8,,0,0.,4.8,1.,4.8
1979-07-03 21:00:40.740 ,0,0,,0,0.,4.8,0.,4.8,,0,0.,4.8,1.,4.8
1979-07-03 21:00:45.540 ,0,0,,0,0.,4.8,0.,4.8,,0,0.,4.8,0.,4.8
1979-07-03 21:00:50.340 ,0,0,,0,0.,4.8,0.,4.8,,0,0.,4.8,0.,4.8
1979-07-03 21:00:55.140 ,0,0,,0,0.,4.8,0.,4.8,,0,0.,4.8,0.,4.8
1979-07-03 21:00:59.940 ,0,0,,0,0.,4.8,0.,4.8,,0,0.,4.8,0.,4.8
1979-07-03 21:01:04.740 ,0,0,,0,9.,4.8,0.,4.8,,0,0.,4.8,0.,4.8
1979-07-03 21:01:09.540 ,0,0,,0,4.,4.8,0.,4.8,,0,0.,4.8,0.,4.8
1979-07-03 21:01:14.340 ,0,0,,0,2.,4.8,0.,4.8,,0,0.,4.8,0.,4.8
1979-07-03 21:01:19.140 ,0,0,,0,8.,4.8,0.,4.8,,0,0.,4.8,0.,4.8
1979-07-03 21:01:23.940 ,0,0,,0,6.,4.8,0.,4.8,,0,0.,4.8,0.,4.8
1979-07-03 21:01:28.740 ,0,0,,0,0.,4.8,0.,4.8,,0,0.,4.8,0.,4.8
1979-07-03 21:01:33.540 ,0,0,,0,0.,4.8,0.,4.8,,0,0.,4.8,0.,4.8
1979-07-03 21:01:38.340 ,1,0,,0,0.,4.8,0.,4.8,,0,0.,4.8,0.,4.8
1979-07-03 21:01:43.140 ,1,0,,0,0.,4.8,0.,4.8,,0,0.,4.8,0.,4.8
1979-07-03 21:01:47.940 ,1,0,,0,2.,4.8,0.,4.8,,0,0.,4.8,0.,4.8
1979-07-03 21:01:52.740 ,1,0,,0,6.,4.8,0.,4.8,,0,0.,4.8,0.,4.8
1979-07-03 21:01:57.540 ,1,0,,0,8.,4.8,0.,4.8,,0,0.,4.8,0.,4.8
1979-07-03 21:02:02.340 ,1,0,,0,8.,4.8,0.,4.8,,0,0.,4.8,2.,4.8
1979-07-03 21:02:07.140 ,1,0,,0,9.,4.8,0.,4.8,,0,0.,4.8,1.,4.8
1979-07-03 21:02:11.940 ,1,0,,0,8.,4.8,0.,4.8,,0,0.,4.8,1.,4.8
1979-07-03 21:02:16.740 ,1,0,,0,0.,4.8,0.,4.8,,0,0.,4.8,2.,4.8
1979-07-03 21:02:21.540 ,1,0,,0,0.,4.8,0.,4.8,,0,0.,4.8,0.,4.8
1979-07-03 21:03:14.340 ,0,0,,0,0.,4.8,0.,4.8,,0,0.,4.8,0.,4.8
1979-07-03 21:03:19.140 ,0,0,,0,0.,4.8,0.,4.8,,0,1.,4.8,1.,4.8
1979-07-03 21:03:23.940 ,0,0,,0,2.,4.8,0.,4.8,,0,0.,4.8,1.,4.8
1979-07-03 21:03:28.740 ,0,0,,0,11.,4.8,1.,4.8,,0,0.,4.8,1.,4.8
1979-07-03 21:03:33.540 ,0,0,,0,9.,4.8,0.,4.8,,0,0.,4.8,0.,4.8
1979-07-03 21:03:38.340 ,0,0,,0,7.,4.8,0.,4.8,,0,0.,4.8,1.,4.8
1979-07-03 21:03:43.140 ,0,0,,0,7.,4.8,0.,4.8,,0,0.,4.8,1.,4.8
1979-07-03 21:03:47.940 ,0,0,,0,9.,4.8,0.,4.8,,0,0.,4.8,0.,4.8
1979-07-03 21:03:52.740 ,0,0,,0,0.,4.8,0.,4.8,,0,0.,4.8,0.,4.8
1979-07-03 21:03:57.540 ,0,0,,0,0.,4.8,0.,4.8,,0,0.,4.8,1.,4.8
1979-07-03 21:04:02.340 ,4,0,,0,0.,4.8,0.,4.8,,0,0.,4.8,1.,4.8
1979-07-03 21:04:07.140 ,4,0,,0,0.,4.8,0.,4.8,,0,0.,4.8,2.,4.8
1979-07-03 21:04:11.940 ,4,0,,0,2.,4.8,0.,4.8,,0,0.,4.8,1.,4.8
1979-07-03 21:04:16.740 ,4,0,,0,6.,4.8,0.,4.8,,0,0.,4.8,0.,4.8
1979-07-03 21:04:21.540 ,4,0,,0,12.,4.8,0.,4.8,,0,0.,4.8,1.,4.8
1979-07-03 21:04:26.340 ,4,0,,0,10.,4.8,0.,4.8,,0,0.,4.8,1.,4.8
1979-07-03 21:04:31.140 ,4,0,,0,10.,4.8,0.,4.8,,0,0.,4.8,1.,4.8
1979-07-03 21:04:35.940 ,4,0,,0,7.,4.8,0.,4.8,,0,0.,4.8,2.,4.8
1979-07-03 21:04:40.740 ,4,0,,0,0.,4.8,0.,4.8,,0,0.,4.8,0.,4.8
1979-07-03 21:04:45.540 ,4,0,,0,0.,4.8,0.,4.8,,0,0.,4.8,2.,4.8
1979-07-03 21:04:50.340 ,5,0,,0,0.,4.8,0.,4.8,,0,0.,4.8,0.,4.8
1979-07-03 21:04:55.140 ,5,0,,0,0.,4.8,0.,4.8,,0,0.,4.8,1.,4.8
1979-07-03 21:04:59.940 ,5,0,,0,0.,4.8,0.,4.8,,0,0.,4.8,5.,4.8
1979-07-03 21:05:04.740 ,5,0,,0,11.,4.8,2.,4.8,,0,0.,4.8,4.,4.8
1979-07-03 21:05:09.540 ,5,0,,0,12.,4.8,0.,4.8,,0,0.,4.8,3.,4.8
1979-07-03 21:05:14.340 ,5,0,,0,11.,4.8,1.,4.8,,0,0.,4.8,1.,4.8
1979-07-03 21:05:19.140 ,5,0,,0,12.,4.8,0.,4.8,,0,0.,4.8,3.,4.8
1979-07-03 21:05:23.940 ,5,0,,0,14.,4.8,1.,4.8,,0,0.,4.8,5.,4.8
1979-07-03 21:05:28.740 ,5,0,,0,0.,4.8,0.,4.8,,0,0.,4.8,2.,4.8
1979-07-03 21:05:33.540 ,5,0,,0,0.,4.8,0.,4.8,,0,0.,4.8,6.,4.8
1979-07-03 21:05:38.340 ,6,0,,0,0.,4.8,0.,4.8,,0,0.,4.8,3.,4.8
1979-07-03 21:05:43.140 ,6,0,,0,0.,4.8,0.,4.8,,0,0.,4.8,3.,4.8
1979-07-03 21:05:47.940 ,6,0,,0,1.,4.8,0.,4.8,,0,0.,4.8,4.,4.8
1979-07-03 21:05:52.740 ,6,0,,0,12.,4.8,3.,4.8,,0,0.,4.8,4.,4.8
1979-07-03 21:05:57.540 ,6,0,,0,10.,4.8,0.,4.8,,0,0.,4.8,5.,4.8
1979-07-03 21:06:02.340 ,6,0,,0,20.,4.8,2.,4.8,,0,0.,4.8,2.,4.8
1979-07-03 21:06:07.140 ,6,0,,0,11.,4.8,0.,4.8,,0,0.,4.8,3.,4.8
1979-07-03 21:06:11.940 ,6,0,,0,10.,4.8,0.,4.8,,0,0.,4.8,3.,4.8
1979-07-03 21:06:16.740 ,6,0,,0,0.,4.8,0.,4.8,,0,0.,4.8,2.,4.8
1979-07-03 21:06:21.540 ,6,0,,0,0.,4.8,0.,4.8,,0,0.,4.8,4.,4.8
1979-07-03 21:06:26.340 ,7,0,,0,0.,4.8,0.,4.8,,0,0.,4.8,1.,4.8
1979-07-03 21:06:31.140 ,7,0,,0,0.,4.8,0.,4.8,,0,0.,4.8,4.,4.8
1979-07-03 21:06:35.940 ,7,0,,0,2.,4.8,0.,4.8,,0,0.,4.8,0.,4.8
1979-07-03 21:06:40.740 ,7,0,,0,8.,4.8,0.,4.8,,0,0.,4.8,0.,4.8
1979-07-03 21:06:45.540 ,7,0,,0,18.,4.8,0.,4.8,,0,0.,4.8,1.,4.8
1979-07-03 21:06:50.340 ,7,0,,0,21.,4.8,0.,4.8,,0,0.,4.8,0.,4.8
1979-07-03 21:06:55.140 ,7,0,,0,18.,4.8,0.,4.8,,0,0.,4.8,0.,4.8
1979-07-03 21:06:59.940 ,7,0,,0,14.,4.8,0.,4.8,,0,0.,4.8,0.,4.8
1979-07-03 21:07:04.740 ,7,0,,0,0.,4.8,0.,4.8,,0,0.,4.8,0.,4.8
1979-07-03 21:07:09.540 ,7,0,,0,0.,4.8,0.,4.8,,0,0.,4.8,0.,4.8
1979-07-03 21:07:14.340 ,3,1,,0,0.,4.8,0.,4.8,,0,0.,4.8,3.,4.8
1979-07-03 21:07:19.140 ,3,1,,0,0.,4.8,0.,4.8,,0,0.,4.8,9.,4.8
1979-07-03 21:07:23.940 ,3,1,,0,0.,4.8,0.,4.8,,0,0.,4.8,2.,4.8
1979-07-03 21:07:28.740 ,3,1,,0,11.,4.8,0.,4.8,,0,0.,4.8,3.,4.8
1979-07-03 21:07:33.540 ,3,1,,0,11.,4.8,0.,4.8,,0,0.,4.8,0.,4.8
1979-07-03 21:07:38.340 ,0,1,,0,11.,4.8,0.,4.8,,0,0.,4.8,0.,4.8
1979-07-03 21:07:43.140 ,0,1,,0,10.,4.8,0.,4.8,,0,0.,4.8,2.,4.8
1979-07-03 21:07:47.940 ,0,1,,0,4.,4.8,0.,4.8,,0,0.,4.8,0.,4.8
1979-07-03 21:07:52.740 ,0,1,,0,0.,4.8,0.,4.8,,0,0.,4.8,0.,4.8
1979-07-03 21:07:57.540 ,0,1,,0,0.,4.8,0.,4.8,,0,0.,4.8,2.,4.8
1979-07-03 21:08:02.340 ,4,1,,0,0.,4.8,0.,4.8,,0,0.,4.8,0.,4.8
1979-07-03 21:08:07.140 ,4,1,,0,0.,4.8,0.,4.8,,0,0.,4.8,0.,4.8
1979-07-03 21:08:11.940 ,4,1,,0,2.,4.8,0.,4.8,,0,0.,4.8,0.,4.8
1979-07-03 21:08:16.740 ,4,1,,0,9.,4.8,0.,4.8,,0,0.,4.8,0.,4.8
1979-07-03 21:08:21.540 ,4,1,,0,9.,4.8,0.,4.8,,0,0.,4.8,1.,4.8
1979-07-03 21:08:26.340 ,7,1,,0,13.,4.8,0.,4.8,,0,0.,4.8,3.,4.8
1979-07-03 21:08:31.140 ,7,1,,0,10.,4.8,0.,4.8,,0,0.,4.8,1.,4.8
1979-07-03 21:08:35.940 ,7,1,,0,12.,4.8,1.,4.8,,0,0.,4.8,3.,4.8
1979-07-03 21:08:40.740 ,7,1,,0,0.,4.8,0.,4.8,,0,0.,4.8,0.,4.8
1979-07-03 21:08:45.540 ,7,1,,0,0.,4.8,0.,4.8,,0,0.,4.8,0.,4.8
1979-07-03 21:08:50.340 ,3,1,,0,0.,4.8,0.,4.8,,0,0.,4.8,3.,4.8
1979-07-03 21:08:55.140 ,3,1,,0,0.,4.8,0.,4.8,,0,0.,4.8,3.,4.8
1979-07-03 21:08:59.940 ,3,1,,0,2.,4.8,0.,4.8,,0,0.,4.8,2.,4.8
1979-07-03 21:09:04.740 ,3,1,,0,11.,4.8,0.,4.8,,0,0.,4.8,3.,4.8
1979-07-03 21:09:09.540 ,3,1,,0,9.,4.8,1.,4.8,,0,0.,4.8,2.,4.8
1979-07-03 21:09:14.340 ,0,1,,0,9.,4.8,0.,4.8,,0,0.,4.8,2.,4.8
1979-07-03 21:09:19.140 ,0,1,,0,6.,4.8,0.,4.8,,0,0.,4.8,0.,4.8
1979-07-03 21:09:23.940 ,0,1,,0,9.,4.8,0.,4.8,,0,0.,4.8,0.,4.8
1979-07-03 21:09:28.740 ,0,1,,0,0.,4.8,0.,4.8,,0,0.,4.8,0.,4.8
1979-07-03 21:09:33.540 ,0,1,,0,0.,4.8,0.,4.8,,0,0.,4.8,1.,4.8
1979-07-03 21:10:26.340 ,0,0,,0,0.,4.8,0.,4.8,,0,0.,4.8,1.,4.8
1979-07-03 21:10:31.140 ,0,0,,0,0.,4.8,0.,4.8,,0,0.,4.8,5.,4.8
1979-07-03 21:10:35.940 ,0,0,,0,2.,4.8,0.,4.8,,0,0.,4.8,5.,4.8
1979-07-03 21:10:40.740 ,0,0,,0,7.,4.8,0.,4.8,,0,0.,4.8,2.,4.8
1979-07-03 21:10:45.540 ,0,0,,0,7.,4.8,0.,4.8,,0,0.,4.8,4.,4.8
1979-07-03 21:10:50.340 ,0,0,,0,9.,4.8,1.,4.8,,0,0.,4.8,0.,4.8
1979-07-03 21:10:55.140 ,0,0,,0,8.,4.8,0.,4.8,,0,0.,4.8,1.,4.8
1979-07-03 21:10:59.940 ,0,0,,0,6.,4.8,0.,4.8,,0,0.,4.8,1.,4.8
1979-07-03 21:11:04.740 ,0,0,,0,0.,4.8,0.,4.8,,0,0.,4.8,1.,4.8
1979-07-03 21:11:09.540 ,0,0,,0,0.,4.8,0.,4.8,,0,0.,4.8,0.,4.8
1979-07-03 21:11:14.340 ,4,1,,0,0.,4.8,0.,4.8,,0,0.,4.8,1.,4.8
1979-07-03 21:11:19.140 ,4,1,,0,0.,4.8,0.,4.8,,0,0.,4.8,1.,4.8
1979-07-03 21:11:23.940 ,4,1,,0,1.,4.8,0.,4.8,,0,0.,4.8,0.,4.8
1979-07-03 21:11:28.740 ,4,1,,0,12.,4.8,0.,4.8,,0,0.,4.8,1.,4.8
1979-07-03 21:11:33.540 ,4,1,,0,10.,4.8,0.,4.8,,0,0.,4.8,2.,4.8
1979-07-03 21:11:38.340 ,7,1,,0,10.,4.8,0.,4.8,,0,0.,4.8,3.,4.8
1979-07-03 21:11:43.140 ,7,1,,0,12.,4.8,1.,4.8,,0,0.,4.8,5.,4.8
1979-07-03 21:11:47.940 ,7,1,,0,13.,4.8,1.,4.8,,0,0.,4.8,2.,4.8
1979-07-03 21:11:52.740 ,7,1,,0,0.,4.8,0.,4.8,,0,0.,4.8,0.,4.8
1979-07-03 21:11:57.540 ,7,1,,0,0.,4.8,0.,4.8,,0,0.,4.8,1.,4.8
1979-07-03 21:12:02.340 ,3,1,,0,0.,4.8,0.,4.8,,0,0.,4.8,1.,4.8
1979-07-03 21:12:07.140 ,3,1,,0,0.,4.8,0.,4.8,,0,0.,4.8,3.,4.8
1979-07-03 21:12:11.940 ,3,1,,0,3.,4.8,0.,4.8,,0,0.,4.8,3.,4.8
1979-07-03 21:12:16.740 ,3,1,,0,12.,4.8,0.,4.8,,0,0.,4.8,1.,4.8
1979-07-03 21:12:21.540 ,3,1,,0,13.,4.8,0.,4.8,,0,0.,4.8,0.,4.8
1979-07-03 21:12:26.340 ,0,1,,0,9.,4.8,0.,4.8,,0,0.,4.8,1.,4.8
1979-07-03 21:12:31.140 ,0,1,,0,6.,4.8,0.,4.8,,0,0.,4.8,2.,4.8
1979-07-03 21:12:35.940 ,0,1,,0,3.,4.8,0.,4.8,,0,0.,4.8,0.,4.8
1979-07-03 21:12:40.740 ,0,1,,0,0.,4.8,0.,4.8,,0,0.,4.8,0.,4.8
1979-07-03 21:12:45.540 ,0,1,,0,0.,4.8,0.,4.8,,0,0.,4.8,0.,4.8
1979-07-03 21:12:50.340 ,4,1,,0,0.,4.8,0.,4.8,,0,0.,4.8,1.,4.8
1979-07-03 21:12:55.140 ,4,1,,0,0.,4.8,0.,4.8,,0,0.,4.8,0.,4.8
1979-07-03 21:12:59.940 ,4,1,,0,2.,4.8,0.,4.8,,0,0.,4.8,2.,4.8
1979-07-03 21:13:04.740 ,4,1,,0,12.,4.8,0.,4.8,,0,0.,4.8,0.,4.8
1979-07-03 21:13:09.540 ,4,1,,0,6.,4.8,0.,4.8,,0,0.,4.8,3.,4.8
1979-07-03 21:13:14.340 ,7,1,,0,11.,4.8,0.,4.8,,0,0.,4.8,1.,4.8
1979-07-03 21:13:19.140 ,7,1,,0,13.,4.8,0.,4.8,,0,0.,4.8,0.,4.8
1979-07-03 21:13:23.940 ,7,1,,0,9.,4.8,3.,4.8,,0,0.,4.8,1.,4.8
1979-07-03 21:13:28.740 ,7,1,,0,0.,4.8,0.,4.8,,0,0.,4.8,1.,4.8
1979-07-03 21:13:33.540 ,7,1,,0,0.,4.8,0.,4.8,,0,0.,4.8,1.,4.8
1979-07-03 21:13:38.340 ,3,1,,0,0.,4.8,0.,4.8,,0,0.,4.8,2.,4.8
1979-07-03 21:13:43.140 ,3,1,,0,0.,4.8,0.,4.8,,0,0.,4.8,3.,4.8
1979-07-03 21:13:47.940 ,3,1,,0,0.,4.8,0.,4.8,,0,0.,4.8,4.,4.8
1979-07-03 21:13:52.740 ,3,1,,0,13.,4.8,0.,4.8,,0,0.,4.8,0.,4.8
1979-07-03 21:13:57.540 ,3,1,,0,13.,4.8,0.,4.8,,0,0.,4.8,1.,4.8
1979-07-03 21:14:02.340 ,0,1,,0,8.,4.8,0.,4.8,,0,0.,4.8,1.,4.8
1979-07-03 21:14:07.140 ,0,1,,0,10.,4.8,0.,4.8,,0,0.,4.8,0.,4.8
1979-07-03 21:14:11.940 ,0,1,,0,5.,4.8,0.,4.8,,0,0.,4.8,0.,4.8
1979-07-03 21:14:16.740 ,0,1,,0,0.,4.8,0.,4.8,,0,0.,4.8,0.,4.8
1979-07-03 21:14:21.540 ,0,1,,0,0.,4.8,0.,4.8,,0,0.,4.8,2.,4.8
1979-07-03 21:14:26.340 ,4,1,,0,0.,4.8,0.,4.8,,0,0.,4.8,0.,4.8
1979-07-03 21:14:31.140 ,4,1,,0,0.,4.8,0.,4.8,,0,0.,4.8,0.,4.8
1979-07-03 21:14:35.940 ,4,1,,0,1.,4.8,0.,4.8,,0,0.,4.8,1.,4.8
1979-07-03 21:14:40.740 ,4,1,,0,7.,4.8,0.,4.8,,0,0.,4.8,1.,4.8
1979-07-03 21:14:45.540 ,4,1,,0,10.,4.8,1.,4.8,,0,0.,4.8,2.,4.8
1979-07-03 21:14:50.340 ,7,1,,0,16.,4.8,1.,4.8,,0,0.,4.8,2.,4.8
1979-07-03 21:14:55.140 ,7,1,,0,11.,4.8,0.,4.8,,0,0.,4.8,4.,4.8
1979-07-03 21:14:59.940 ,7,1,,0,14.,4.8,1.,4.8,,0,0.,4.8,3.,4.8
1979-07-03 21:15:04.740 ,7,1,,0,0.,4.8,0.,4.8,,0,0.,4.8,0.,4.8
1979-07-03 21:15:09.540 ,7,1,,0,0.,4.8,0.,4.8,,0,0.,4.8,0.,4.8
1979-07-03 21:15:14.340 ,3,1,,0,0.,4.8,0.,4.8,,0,0.,4.8,2.,4.8
1979-07-03 21:15:19.140 ,3,1,,0,0.,4.8,0.,4.8,,0,0.,4.8,2.,4.8
1979-07-03 21:15:23.940 ,3,1,,0,3.,4.8,0.,4.8,,0,0.,4.8,3.,4.8
1979-07-03 21:15:28.740 ,3,1,,0,9.,4.8,0.,4.8,,0,0.,4.8,1.,4.8
1979-07-03 21:15:33.540 ,3,1,,0,8.,4.8,0.,4.8,,0,0.,4.8,1.,4.8
1979-07-03 21:15:38.340 ,0,1,,0,7.,4.8,0.,4.8,,0,0.,4.8,0.,4.8
1979-07-03 21:15:43.140 ,0,1,,0,6.,4.8,0.,4.8,,0,0.,4.8,1.,4.8
1979-07-03 21:15:47.940 ,0,1,,0,4.,4.8,0.,4.8,,0,0.,4.8,3.,4.8
1979-07-03 21:15:52.740 ,0,1,,0,0.,4.8,0.,4.8,,0,0.,4.8,2.,4.8
1979-07-03 21:15:57.540 ,0,1,,0,0.,4.8,0.,4.8,,0,0.,4.8,0.,4.8
1979-07-03 21:16:02.340 ,4,1,,0,0.,4.8,0.,4.8,,0,0.,4.8,0.,4.8
1979-07-03 21:16:07.140 ,4,1,,0,0.,4.8,0.,4.8,,0,0.,4.8,0.,4.8
1979-07-03 21:16:11.940 ,4,1,,0,0.,4.8,0.,4.8,,0,0.,4.8,0.,4.8
1979-07-03 21:16:16.740 ,4,1,,0,4.,4.8,0.,4.8,,0,0.,4.8,2.,4.8
1979-07-03 21:16:21.540 ,4,1,,0,14.,4.8,2.,4.8,,0,0.,4.8,1.,4.8
1979-07-03 21:16:26.340 ,7,1,,0,9.,4.8,0.,4.8,,0,0.,4.8,2.,4.8
1979-07-03 21:16:31.140 ,7,1,,0,8.,4.8,0.,4.8,,0,0.,4.8,6.,4.8
1979-07-03 21:16:35.940 ,7,1,,0,7.,4.8,0.,4.8,,0,0.,4.8,5.,4.8
1979-07-03 21:16:40.740 ,7,1,,0,0.,4.8,0.,4.8,,0,0.,4.8,1.,4.8
1979-07-03 21:16:45.540 ,7,1,,0,0.,4.8,0.,4.8,,0,0.,4.8,0.,4.8
1979-07-03 21:16:50.340 ,3,1,,0,0.,4.8,0.,4.8,,0,0.,4.8,0.,4.8
1979-07-03 21:16:55.140 ,3,1,,0,0.,4.8,0.,4.8,,0,0.,4.8,6.,4.8
1979-07-03 21:16:59.940 ,3,1,,0,2.,4.8,0.,4.8,,0,0.,4.8,3.,4.8
1979-07-03 21:17:04.740 ,3,1,,0,13.,4.8,0.,4.8,,0,0.,4.8,2.,4.8
1979-07-03 21:17:09.540 ,3,1,,0,10.,4.8,0.,4.8,,0,0.,4.8,1.,4.8
1979-07-03 21:17:14.340 ,0,0,,0,,0,,0,,0,,0,,0
1979-07-03 21:17:19.140 ,0,0,,0,,0,,0,,0,,0,,0
1979-07-03 21:17:23.940 ,0,0,,0,,0,,0,,0,,0,,0
1979-07-03 21:17:28.740 ,0,0,,0,,0,,0,,0,,0,,0
1979-07-03 21:17:33.540 ,0,0,,0,,0,,0,,0,,0,,0
1979-07-03 21:20:01.140 ,0,0,,0,,0,,0,,0,,0,,0
1979-07-03 21:20:05.940 ,0,0,,0,,0,,0,,0,,0,,0
1979-07-03 21:20:10.740 ,0,0,,0,,0,,0,,0,,0,,0
1979-07-03 21:20:15.540 ,0,0,,0,,0,,0,,0,,0,,0
1979-07-03 21:20:20.340 ,0,0,,0,,0,,0,,0,,0,,0
1979-07-03 21:20:02.340 ,0,0,,0,,0,,0,,0,,0,,0
1979-07-03 21:20:07.140 ,0,0,,0,,0,,0,,0,,0,,0
1979-07-03 21:20:11.940 ,0,0,,0,2.,4.8,0.,4.8,,0,2097152.,4.8,0.,4.8
1979-07-03 21:20:16.740 ,0,0,,0,10.,4.8,0.,4.8,,0,0.,4.8,1.,4.8
1979-07-03 21:20:21.540 ,0,0,,0,,0,,0,,0,,0,,0
1979-07-03 21:20:26.340 ,0,0,,0,12.,4.8,0.,4.8,,0,0.,4.8,1.,4.8
1979-07-03 21:20:31.140 ,0,0,,0,,0,,0,,0,,0,,0
1979-07-03 21:20:35.940 ,0,0,,0,,0,,0,,0,,0,,0
1979-07-03 21:20:40.740 ,0,0,,0,0.,4.8,0.,4.8,,0,0.,4.8,2.,4.8
1979-07-03 21:20:45.540 ,0,0,,0,,0,,0,,0,,0,,0
1979-07-03 21:21:38.340 ,0,0,,0,,0,,0,,0,,0,,0
1979-07-03 21:21:43.140 ,0,0,,0,0.,4.8,0.,4.8,,0,0.,4.8,0.,4.8
1979-07-03 21:21:47.940 ,0,0,,0,,0,,0,,0,,0,,0
1979-07-03 21:21:52.740 ,0,0,,0,,0,,0,,0,,0,,0
1979-07-03 21:21:57.540 ,0,0,,0,,0,,0,,0,,0,,0
1979-07-03 21:22:02.340 ,0,0,,0,,0,,0,,0,,0,,0
1979-07-03 21:22:07.140 ,0,0,,0,,0,,0,,0,,0,,0
1979-07-03 21:22:11.940 ,0,0,,0,,0,,0,,0,,0,,0
1979-07-03 21:22:16.740 ,0,0,,0,,0,,0,,0,,0,,0
1979-07-03 21:22:21.540 ,0,0,,0,,0,,0,,0,,0,,0
1979-07-03 21:22:48.540 ,0,0,,0,,0,,0,,0,,0,,0
1979-07-03 21:22:53.340 ,0,0,,0,,0,,0,,0,,0,,0
1979-07-03 21:22:58.140 ,0,0,,0,,0,,0,,0,,0,,0
1979-07-03 21:23:02.940 ,0,0,,0,,0,,0,,0,,0,,0
1979-07-03 21:23:07.740 ,0,0,,0,4.,4.8,0.,4.8,,0,0.,4.8,0.,4.8
1979-07-03 21:22:50.340 ,0,0,,0,,0,,0,,0,,0,,0
1979-07-03 21:22:55.140 ,0,0,,0,,0,,0,,0,,0,,0
1979-07-03 21:22:59.940 ,0,0,,0,,0,,0,,0,,0,,0
1979-07-03 21:23:04.740 ,0,0,,0,,0,,0,,0,,0,,0
1979-07-03 21:23:09.540 ,0,0,,0,,0,,0,,0,,0,,0
1979-07-03 21:23:16.140 ,0,0,,0,,0,,0,,0,,0,,0
1979-07-03 21:23:20.940 ,0,0,,0,0.,4.8,0.,4.8,,0,0.,4.8,0.,4.8
1979-07-03 21:23:25.740 ,0,0,,0,,0,,0,,0,,0,,0
1979-07-03 21:23:30.540 ,0,0,,0,11.,4.8,0.,4.8,,0,0.,4.8,1.,4.8
1979-07-03 21:23:35.340 ,0,0,,0,,0,,0,,0,,0,,0
1979-07-03 21:23:38.340 ,0,0,,0,,0,,0,,0,,0,,0
1979-07-03 21:23:43.140 ,0,0,,0,5.,4.8,0.,4.8,,0,0.,4.8,1.,4.8
1979-07-03 21:23:47.940 ,0,0,,0,2.,4.8,0.,4.8,,0,0.,4.8,1.,4.8
1979-07-03 21:23:52.740 ,0,0,,0,0.,4.8,0.,4.8,,0,0.,4.8,0.,4.8
1979-07-03 21:23:57.540 ,0,0,,0,0.,4.8,0.,4.8,,0,0.,4.8,0.,4.8
1979-07-03 21:24:02.340 ,1,0,,0,0.,4.8,0.,4.8,,0,0.,4.8,0.,4.8
1979-07-03 21:24:07.140 ,1,0,,0,0.,4.8,0.,4.8,,0,0.,4.8,0.,4.8
1979-07-03 21:24:11.940 ,1,0,,0,0.,4.8,0.,4.8,,0,0.,4.8,0.,4.8
1979-07-03 21:24:16.740 ,1,0,,0,9.,4.8,0.,4.8,,0,0.,4.8,0.,4.8
1979-07-03 21:24:21.540 ,1,0,,0,6.,4.8,0.,4.8,,0,0.,4.8,2.,4.8
1979-07-03 21:24:26.340 ,1,0,,0,12.,4.8,0.,4.8,,0,0.,4.8,0.,4.8
1979-07-03 21:24:31.140 ,1,0,,0,3.,4.8,0.,4.8,,0,0.,4.8,0.,4.8
1979-07-03 21:24:35.940 ,1,0,,0,6.,4.8,0.,4.8,,0,0.,4.8,0.,4.8
1979-07-03 21:24:40.740 ,1,0,,0,0.,4.8,0.,4.8,,0,0.,4.8,0.,4.8
1979-07-03 21:24:45.540 ,1,0,,0,0.,4.8,0.,4.8,,0,0.,4.8,1.,4.8
1979-07-03 21:24:50.340 ,2,0,,0,0.,4.8,0.,4.8,,0,0.,4.8,1.,4.8
1979-07-03 21:24:55.140 ,2,0,,0,0.,4.8,0.,4.8,,0,0.,4.8,2.,4.8
1979-07-03 21:24:59.940 ,2,0,,0,3.,4.8,0.,4.8,,0,0.,4.8,0.,4.8
1979-07-03 21:25:04.740 ,2,0,,0,10.,4.8,0.,4.8,,0,0.,4.8,1.,4.8
1979-07-03 21:25:09.540 ,2,0,,0,6.,4.8,1.,4.8,,0,0.,4.8,0.,4.8
1979-07-03 21:25:14.340 ,2,0,,0,9.,4.8,0.,4.8,,0,0.,4.8,1.,4.8
1979-07-03 21:25:19.140 ,2,0,,0,6.,4.8,0.,4.8,,0,0.,4.8,1.,4.8
1979-07-03 21:25:23.940 ,2,0,,0,6.,4.8,0.,4.8,,0,0.,4.8,0.,4.8
1979-07-03 21:25:28.740 ,2,0,,0,0.,4.8,0.,4.8,,0,0.,4.8,0.,4.8
1979-07-03 21:25:33.540 ,2,0,,0,0.,4.8,0.,4.8,,0,0.,4.8,0.,4.8
1979-07-03 21:25:38.340 ,3,0,,0,0.,4.8,0.,4.8,,0,0.,4.8,0.,4.8
1979-07-03 21:25:43.140 ,3,0,,0,0.,4.8,0.,4.8,,0,0.,4.8,0.,4.8
1979-07-03 21:25:47.940 ,3,0,,0,2.,4.8,0.,4.8,,0,0.,4.8,0.,4.8
1979-07-03 21:25:52.740 ,3,0,,0,10.,4.8,0.,4.8,,0,0.,4.8,1.,4.8
1979-07-03 21:25:57.540 ,3,0,,0,12.,4.8,0.,4.8,,0,0.,4.8,0.,4.8
1979-07-03 21:26:02.340 ,3,0,,0,9.,4.8,0.,4.8,,0,0.,4.8,2.,4.8
1979-07-03 21:26:07.140 ,3,0,,0,10.,4.8,1.,4.8,,0,0.,4.8,0.,4.8
1979-07-03 21:26:11.940 ,3,0,,0,6.,4.8,0.,4.8,,0,0.,4.8,0.,4.8
1979-07-03 21:26:16.740 ,3,0,,0,0.,4.8,0.,4.8,,0,0.,4.8,2.,4.8
1979-07-03 21:26:21.540 ,3,0,,0,0.,4.8,0.,4.8,,0,0.,4.8,2.,4.8
1979-07-03 21:26:26.340 ,4,0,,0,0.,4.8,0.,4.8,,0,0.,4.8,0.,4.8
1979-07-03 21:26:31.140 ,4,0,,0,0.,4.8,0.,4.8,,0,0.,4.8,2.,4.8
1979-07-03 21:26:35.940 ,4,0,,0,0.,4.8,0.,4.8,,0,0.,4.8,2.,4.8
1979-07-03 21:26:40.740 ,4,0,,0,6.,4.8,0.,4.8,,0,0.,4.8,2.,4.8
1979-07-03 21:26:45.540 ,4,0,,0,10.,4.8,1.,4.8,,0,0.,4.8,2.,4.8
1979-07-03 21:26:50.340 ,4,0,,0,6.,4.8,0.,4.8,,0,0.,4.8,0.,4.8
1979-07-03 21:26:55.140 ,4,0,,0,9.,4.8,0.,4.8,,0,0.,4.8,0.,4.8
1979-07-03 21:26:59.940 ,4,0,,0,9.,4.8,0.,4.8,,0,0.,4.8,0.,4.8
1979-07-03 21:27:04.740 ,4,0,,0,0.,4.8,0.,4.8,,0,0.,4.8,2.,4.8
1979-07-03 21:27:09.540 ,4,0,,0,0.,4.8,0.,4.8,,0,0.,4.8,0.,4.8
1979-07-03 21:27:14.340 ,5,0,,0,0.,4.8,0.,4.8,,0,0.,4.8,2.,4.8
1979-07-03 21:27:19.140 ,5,0,,0,0.,4.8,0.,4.8,,0,0.,4.8,3.,4.8
1979-07-03 21:27:23.940 ,5,0,,0,3.,4.8,0.,4.8,,0,0.,4.8,4.,4.8
1979-07-03 21:27:28.740 ,5,0,,0,9.,4.8,0.,4.8,,0,0.,4.8,3.,4.8
1979-07-03 21:27:33.540 ,5,0,,0,15.,4.8,0.,4.8,,0,0.,4.8,3.,4.8
1979-07-03 21:27:38.340 ,5,0,,0,13.,4.8,0.,4.8,,0,0.,4.8,1.,4.8
1979-07-03 21:27:43.140 ,5,0,,0,12.,4.8,0.,4.8,,0,0.,4.8,0.,4.8
1979-07-03 21:27:47.940 ,5,0,,0,9.,4.8,1.,4.8,,0,0.,4.8,0.,4.8
1979-07-03 21:27:52.740 ,5,0,,0,0.,4.8,0.,4.8,,0,0.,4.8,4.,4.8
1979-07-03 21:27:57.540 ,5,0,,0,1.,4.8,0.,4.8,,0,0.,4.8,2.,4.8
1979-07-03 21:28:02.340 ,6,0,,0,0.,4.8,0.,4.8,,0,0.,4.8,3.,4.8
1979-07-03 21:28:07.140 ,6,0,,0,0.,4.8,0.,4.8,,0,0.,4.8,1.,4.8
1979-07-03 21:28:11.940 ,6,0,,0,2.,4.8,0.,4.8,,0,0.,4.8,2.,4.8
1979-07-03 21:28:16.740 ,6,0,,0,11.,4.8,0.,4.8,,0,0.,4.8,2.,4.8
1979-07-03 21:28:21.540 ,6,0,,0,9.,4.8,0.,4.8,,0,0.,4.8,5.,4.8
1979-07-03 21:28:26.340 ,6,0,,0,13.,4.8,0.,4.8,,0,0.,4.8,1.,4.8
1979-07-03 21:28:31.140 ,6,0,,0,13.,4.8,0.,4.8,,0,0.,4.8,2.,4.8
1979-07-03 21:28:35.940 ,6,0,,0,13.,4.8,0.,4.8,,0,0.,4.8,2.,4.8
1979-07-03 21:28:40.740 ,6,0,,0,0.,4.8,0.,4.8,,0,0.,4.8,3.,4.8
1979-07-03 21:28:45.540 ,6,0,,0,0.,4.8,0.,4.8,,0,0.,4.8,2.,4.8
1979-07-03 21:28:50.340 ,7,0,,0,0.,4.8,0.,4.8,,0,0.,4.8,5.,4.8
1979-07-03 21:28:55.140 ,7,0,,0,0.,4.8,0.,4.8,,0,0.,4.8,1.,4.8
1979-07-03 21:28:59.940 ,7,0,,0,3.,4.8,0.,4.8,,0,0.,4.8,0.,4.8
1979-07-03 21:29:04.740 ,7,0,,0,12.,4.8,0.,4.8,,0,0.,4.8,0.,4.8
1979-07-03 21:29:09.540 ,7,0,,0,19.,4.8,0.,4.8,,0,0.,4.8,0.,4.8
1979-07-03 21:29:14.340 ,7,0,,0,14.,4.8,0.,4.8,,0,0.,4.8,0.,4.8
1979-07-03 21:29:19.140 ,7,0,,0,14.,4.8,0.,4.8,,0,0.,4.8,1.,4.8
1979-07-03 21:29:23.940 ,7,0,,0,14.,4.8,0.,4.8,,0,0.,4.8,0.,4.8
1979-07-03 21:29:28.740 ,7,0,,0,0.,4.8,0.,4.8,,0,0.,4.8,0.,4.8
1979-07-03 21:29:33.540 ,7,0,,0,0.,4.8,0.,4.8,,0,0.,4.8,0.,4.8
1979-07-03 21:29:38.340 ,7,0,,0,0.,4.8,0.,4.8,,0,0.,4.8,1.,4.8
1979-07-03 21:29:43.140 ,7,0,,0,0.,4.8,0.,4.8,,0,0.,4.8,0.,4.8
1979-07-03 21:29:47.940 ,7,0,,0,1.,4.8,0.,4.8,,0,0.,4.8,0.,4.8
1979-07-03 21:29:52.740 ,7,0,,0,18.,4.8,0.,4.8,,0,0.,4.8,0.,4.8
1979-07-03 21:29:57.540 ,7,0,,0,16.,4.8,0.,4.8,,0,0.,4.8,0.,4.8
1979-07-03 21:30:02.340 ,7,0,,0,17.,4.8,0.,4.8,,0,0.,4.8,0.,4.8
1979-07-03 21:30:07.140 ,7,0,,0,19.,4.8,0.,4.8,,0,0.,4.8,0.,4.8
1979-07-03 21:30:11.940 ,7,0,,0,16.,4.8,0.,4.8,,0,0.,4.8,1.,4.8
1979-07-03 21:30:16.740 ,7,0,,0,0.,4.8,0.,4.8,,0,0.,4.8,0.,4.8
1979-07-03 21:30:21.540 ,7,0,,0,0.,4.8,0.,4.8,,0,0.,4.8,0.,4.8
1979-07-03 21:30:26.340 ,6,0,,0,0.,4.8,0.,4.8,,0,0.,4.8,0.,4.8
1979-07-03 21:30:31.140 ,6,0,,0,0.,4.8,0.,4.8,,0,0.,4.8,1.,4.8
1979-07-03 21:30:35.940 ,6,0,,0,1.,4.8,0.,4.8,,0,0.,4.8,0.,4.8
1979-07-03 21:30:40.740 ,6,0,,0,8.,4.8,0.,4.8,,0,0.,4.8,4.,4.8
1979-07-03 21:30:45.540 ,6,0,,0,9.,4.8,0.,4.8,,0,0.,4.8,2.,4.8
1979-07-03 21:30:50.340 ,6,0,,0,12.,4.8,1.,4.8,,0,0.,4.8,0.,4.8
1979-07-03 21:30:55.140 ,6,0,,0,9.,4.8,0.,4.8,,0,0.,4.8,5.,4.8
1979-07-03 21:30:59.940 ,6,0,,0,5.,4.8,0.,4.8,,0,0.,4.8,1.,4.8
1979-07-03 21:31:04.740 ,6,0,,0,0.,4.8,0.,4.8,,0,0.,4.8,5.,4.8
1979-07-03 21:31:09.540 ,6,0,,0,0.,4.8,0.,4.8,,0,0.,4.8,2.,4.8
1979-07-03 21:31:14.340 ,5,0,,0,0.,4.8,0.,4.8,,0,0.,4.8,5.,4.8
1979-07-03 21:31:19.140 ,5,0,,0,0.,4.8,0.,4.8,,0,0.,4.8,1.,4.8
1979-07-03 21:31:23.940 ,5,0,,0,2.,4.8,0.,4.8,,0,0.,4.8,2.,4.8
1979-07-03 21:31:28.740 ,5,0,,0,13.,4.8,1.,4.8,,0,0.,4.8,4.,4.8
1979-07-03 21:31:33.540 ,5,0,,0,14.,4.8,0.,4.8,,0,0.,4.8,2.,4.8
1979-07-03 21:31:38.340 ,5,0,,0,15.,4.8,0.,4.8,,0,0.,4.8,3.,4.8
1979-07-03 21:31:43.140 ,5,0,,0,11.,4.8,0.,4.8,,0,0.,4.8,2.,4.8
1979-07-03 21:31:47.940 ,5,0,,0,10.,4.8,1.,4.8,,0,0.,4.8,2.,4.8
1979-07-03 21:31:52.740 ,5,0,,0,0.,4.8,0.,4.8,,0,0.,4.8,3.,4.8
1979-07-03 21:31:57.540 ,5,0,,0,0.,4.8,0.,4.8,,0,0.,4.8,2.,4.8
1979-07-03 21:32:02.340 ,4,0,,0,0.,4.8,0.,4.8,,0,0.,4.8,2.,4.8
1979-07-03 21:32:07.140 ,4,0,,0,0.,4.8,0.,4.8,,0,0.,4.8,2.,4.8
1979-07-03 21:32:11.940 ,4,0,,0,2.,4.8,0.,4.8,,0,0.,4.8,1.,4.8
1979-07-03 21:32:16.740 ,4,0,,0,6.,4.8,0.,4.8,,0,0.,4.8,0.,4.8
1979-07-03 21:32:21.540 ,4,0,,0,11.,4.8,0.,4.8,,0,0.,4.8,1.,4.8
1979-07-03 21:32:26.340 ,4,0,,0,16.,4.8,2.,4.8,,0,0.,4.8,2.,4.8
1979-07-03 21:32:31.140 ,4,0,,0,7.,4.8,1.,4.8,,0,0.,4.8,1.,4.8
1979-07-03 21:32:35.940 ,4,0,,0,5.,4.8,0.,4.8,,0,0.,4.8,1.,4.8
1979-07-03 21:32:40.740 ,4,0,,0,0.,4.8,0.,4.8,,0,0.,4.8,0.,4.8
1979-07-03 21:32:45.540 ,4,0,,0,0.,4.8,0.,4.8,,0,0.,4.8,0.,4.8
1979-07-03 21:32:50.340 ,3,0,,0,0.,4.8,0.,4.8,,0,0.,4.8,0.,4.8
1979-07-03 21:32:55.140 ,3,0,,0,0.,4.8,0.,4.8,,0,0.,4.8,0.,4.8
1979-07-03 21:32:59.940 ,3,0,,0,2.,4.8,0.,4.8,,0,0.,4.8,1.,4.8
1979-07-03 21:33:04.740 ,3,0,,0,10.,4.8,0.,4.8,,0,0.,4.8,1.,4.8
1979-07-03 21:33:09.540 ,3,0,,0,13.,4.8,0.,4.8,,0,0.,4.8,1.,4.8
1979-07-03 21:33:14.340 ,3,0,,0,11.,4.8,0.,4.8,,0,0.,4.8,1.,4.8
1979-07-03 21:33:19.140 ,3,0,,0,10.,4.8,0.,4.8,,0,0.,4.8,2.,4.8
1979-07-03 21:33:23.940 ,3,0,,0,4.,4.8,0.,4.8,,0,0.,4.8,0.,4.8
1979-07-03 21:33:28.740 ,3,0,,0,0.,4.8,0.,4.8,,0,0.,4.8,0.,4.8
1979-07-03 21:33:33.540 ,3,0,,0,0.,4.8,1.,4.8,,0,0.,4.8,0.,4.8
1979-07-03 21:33:38.340 ,2,0,,0,0.,4.8,0.,4.8,,0,0.,4.8,1.,4.8
1979-07-03 21:33:43.140 ,2,0,,0,0.,4.8,0.,4.8,,0,0.,4.8,0.,4.8
1979-07-03 21:33:47.940 ,2,0,,0,0.,4.8,0.,4.8,,0,0.,4.8,1.,4.8
1979-07-03 21:33:52.740 ,2,0,,0,8.,4.8,0.,4.8,,0,0.,4.8,0.,4.8
1979-07-03 21:33:57.540 ,2,0,,0,13.,4.8,0.,4.8,,0,0.,4.8,0.,4.8
1979-07-03 21:34:02.340 ,2,0,,0,11.,4.8,0.,4.8,,0,0.,4.8,1.,4.8
1979-07-03 21:34:07.140 ,2,0,,0,6.,4.8,0.,4.8,,0,0.,4.8,0.,4.8
1979-07-03 21:34:11.940 ,2,0,,0,3.,4.8,0.,4.8,,0,0.,4.8,0.,4.8
1979-07-03 21:34:16.740 ,2,0,,0,0.,4.8,0.,4.8,,0,0.,4.8,1.,4.8
1979-07-03 21:34:21.540 ,2,0,,0,0.,4.8,0.,4.8,,0,0.,4.8,0.,4.8
1979-07-03 21:34:26.340 ,1,0,,0,0.,4.8,0.,4.8,,0,0.,4.8,1.,4.8
1979-07-03 21:34:31.140 ,1,0,,0,0.,4.8,0.,4.8,,0,0.,4.8,1.,4.8
1979-07-03 21:34:35.940 ,1,0,,0,0.,4.8,0.,4.8,,0,0.,4.8,0.,4.8
1979-07-03 21:34:40.740 ,1,0,,0,7.,4.8,0.,4.8,,0,0.,4.8,0.,4.8
1979-07-03 21:34:45.540 ,1,0,,0,10.,4.8,0.,4.8,,0,0.,4.8,0.,4.8
1979-07-03 21:34:50.340 ,1,0,,0,9.,4.8,0.,4.8,,0,0.,4.8,0.,4.8
1979-07-03 21:34:55.140 ,1,0,,0,8.,4.8,0.,4.8,,0,0.,4.8,1.,4.8
1979-07-03 21:34:59.940 ,1,0,,0,6.,4.8,0.,4.8,,0,0.,4.8,0.,4.8
1979-07-03 21:35:04.740 ,1,0,,0,0.,4.8,0.,4.8,,0,0.,4.8,1.,4.8
1979-07-03 21:35:09.540 ,1,0,,0,0.,4.8,0.,4.8,,0,0.,4.8,0.,4.8
1979-07-03 21:35:14.340 ,0,0,,0,0.,4.8,0.,4.8,,0,0.,4.8,0.,4.8